User: anonymous   Login
Location: Unspecified
(0.0000°N, 0.0000°E)
Time: 07:43:36
(UTC+00:00)
Language:

USA 200 - Orbit

View from above orbital plane
View from above orbital plane
View from above satellite
View from above satellite

Ground track
Ground track

The orbit data is extracted from the following two-line orbital elements,

1 32706U 08010A   17361.72452765 0.00000000  00000-0  00000-0 0    06
2 32706  63.5008 320.3974 7113284 271.8026  15.3988  2.00618986    06
Epoch (UTC): 27 December 2017 17:23:19
Eccentricity: 0.7113284
inclination: 63.5008°
perigee height: 1287 km
apogee height: 39066 km
right ascension of ascending node: 320.3974°
argument of perigee: 271.8026°
revolutions per day: 2.00618986
mean anomaly at epoch: 15.3988°
orbit number at epoch: 0

The dashed part of the orbit path shows where the satellite is in the earth's shadow,  

DLR